Regional Weather Roundup
Issued by NWS

Home | Current Version | Previous Version | Text Only | Print | Product List | Glossary On
Versions: 1 2 3 4 5 6 7 8 9 10 11 12 13 14 15 16 17 18 19 20 21 22 23 24 25 26 27 28 29 30 31 32 33 34 35 36 37 38 39 40 41 42 43 44 45 46 47 48 49 50
000
ASUS44 KOUN 241110
RWROK

WEATHER ROUNDUP FOR OKLAHOMA
NATIONAL WEATHER SERVICE NORMAN OK
600 AM CDT THU JUL 24 2014

NOTE: "FAIR" INDICATES FEW OR NO CLOUDS BELOW 12,000 FEET WITH NO
      SIGNIFICANT WEATHER AND/OR OBSTRUCTIONS TO VISIBILITY.

OKZ001>007-009>012-014-015-017-241200-
NORTHWEST OKLAHOMA AND THE PANHANDLE

CITY           SKY/WX    TMP DP  RH WIND       PRES   REMARKS
GAGE           CLEAR     72  71  97 CALM      30.09S FOG
ENID/WOODRING  CLEAR     68  68 100 CALM      30.06S
$$

OKZ016-021>023-033>039-044-045-241200-
SOUTHWEST OKLAHOMA

CITY           SKY/WX    TMP DP  RH WIND       PRES   REMARKS
LAWTON/REGL    PTCLDY    72  67  84 CALM      30.05R
LAWTON/FT SILL PTCLDY    72  68  88 N3        30.05R
FREDERICK      PTCLDY    75  71  87 NE6       30.03R
CLINTON        CLEAR     74  69  85 S8        30.10R
HOBART         CLEAR     73  68  84 SW5       30.08R
ALTUS AFB      CLEAR     73  72  97 N1        30.06R
$$

OKZ018>020-024>031-241200-
CENTRAL OKLAHOMA

CITY           SKY/WX    TMP DP  RH WIND       PRES   REMARKS
OKLAHOMA CITY  PTCLDY    73  66  78 NE6       30.07R
OKC/WILEY POST CLEAR     73  67  81 CALM      30.07S
OKC/TINKER AFB MOCLDY    73  66  79 N5        30.07R
STILLWATER     CLEAR     67  66  97 CALM      30.06S
GUTHRIE        PTCLDY    70  68  93 CALM      30.07R
$$

OKZ008-013-054>072-241200-
NORTHEAST OKLAHOMA

CITY           SKY/WX    TMP DP  RH WIND       PRES   REMARKS
TULSA          PTCLDY    67  66  97 NW6       30.05R
TULSA/JONES    CLEAR     68  68 100 CALM      30.05S FOG
PONCA CITY     CLEAR     69  66  90 NE3       30.07R
BARTLESVILLE   CLEAR     65  65 100 CALM      30.08R
MUSKOGEE       FOG       65  64  97 CALM      30.06R VSB 1/4
$$

OKZ032-040>043-046>053-073>077-241200-
SOUTH CENTRAL/SOUTHEAST OKLAHOMA

CITY           SKY/WX    TMP DP  RH WIND       PRES   REMARKS
ARDMORE/DWNTWN CLOUDY    72  68  88 CALM      30.07R
MCALESTER      FOG       67  66  97 CALM      30.06R VSB 1/2
$$



USA.gov is the U.S. government's official web portal to all federal, state and local government web resources and services.